This is the latest recevied weather packets stored in our database for station/object N5PA. If no packets are shown the sender has not sent any weather packets the latest 10 day(s).
| Time | Temp. | Humidity | Pressure | Rain* | Wind** | Luminosity | Snow |
|---|---|---|---|---|---|---|---|
| 1777644606 | 15° C | 46% | 1014.8 hPa | 0 mm | - | 1025 W/m² | - |
| 1777644307 | 15° C | 46% | 1014.7 hPa | 0 mm | - | 1023 W/m² | - |
| 1777644007 | 15° C | 46% | 1014.7 hPa | 0 mm | - | 1021 W/m² | - |
| 1777643706 | 15° C | 46% | 1014.7 hPa | 0 mm | - | 1020 W/m² | - |
| 1777643406 | 15° C | 44% | 1014.6 hPa | 0 mm | - | 1020 W/m² | - |
| 1777643106 | 15° C | 45% | 1014.7 hPa | 0 mm | - | 1021 W/m² | - |
| 1777642807 | 15° C | 45% | 1014.7 hPa | 0 mm | - | 1021 W/m² | - |
| 1777642506 | 15° C | 45% | 1014.6 hPa | 0 mm | - | 1020 W/m² | - |
| 1777642206 | 15° C | 44% | 1014.6 hPa | 0 mm | - | 1020 W/m² | - |
| 1777641906 | 15° C | 44% | 1014.5 hPa | 0 mm | - | 1020 W/m² | - |
| 1777641606 | 15° C | 44% | 1014.6 hPa | 0 mm | - | 1023 W/m² | - |
| 1777641307 | 15° C | 45% | 1014.7 hPa | 0 mm | - | 1023 W/m² | - |
| 1777641006 | 14.44° C | 45% | 1014.7 hPa | 0 mm | - | 1021 W/m² | - |
| 1777640706 | 14.44° C | 45% | 1014.7 hPa | 0 mm | - | 1023 W/m² | - |
| 1777640406 | 14.44° C | 45% | 1014.3 hPa | 0 mm | - | 1023 W/m² | - |
| 1777640106 | 14.44° C | 44% | 1014 hPa | 0 mm | - | 1023 W/m² | - |
| 1777639807 | 14.44° C | 43% | 1013.7 hPa | 0 mm | - | 1023 W/m² | - |
| 1777639506 | 14.44° C | 41% | 1013.7 hPa | 0.25 mm | - | 1020 W/m² | - |
| 1777639205 | 14.44° C | 40% | 1013.6 hPa | 0.25 mm | - | 1021 W/m² | - |
| 1777638907 | 14.44° C | 38% | 1013.5 hPa | 0.25 mm | - | 1021 W/m² | - |
| 1777638604 | 14.44° C | 38% | 1013.4 hPa | 0.25 mm | - | 1020 W/m² | - |
| 1777638307 | 14.44° C | 37% | 1013.3 hPa | 0.25 mm | - | 1021 W/m² | - |
| 1777638006 | 15° C | 37% | 1013.4 hPa | 0.25 mm | - | 1020 W/m² | - |
| 1777637706 | 14.44° C | 37% | 1013.4 hPa | 0.25 mm | - | 1021 W/m² | - |
| 1777637406 | 14.44° C | 38% | 1013.5 hPa | 0.25 mm | - | 1023 W/m² | - |
* Rain latest hour (hover to see other rain measurements)
** Current wind speed in m/s (hover to see current wind gust speed)